Regional Weather Roundup
Issued by NWS

Home | Current Version | Previous Version | Text Only | Print | Product List | Glossary Off
Versions: 1 2 3 4 5 6 7 8 9 10 11 12 13 14 15 16 17 18 19 20 21 22 23 24 25 26 27

000
ASUS45 KCYS 160110
RWRWY

WYOMING REGIONAL WEATHER ROUNDUP
NATIONAL WEATHER SERVICE CHEYENNE WY
600 PM MST SUN JAN 15 2017

NOTE:  "FAIR" INDICATES FEW OR NO CLOUDS BELOW 12,000 FEET
WITH NO SIGNIFICANT WEATHER AND/OR OBSTRUCTIONS TO VISIBILITY.

WYZ001-160200-
YELLOWSTONE NATIONAL PARK

CITY           SKY/WX    TMP DP  RH WIND       PRES   REMARKS
LK YELLOWSTONE   N/A     -5  -8  87 CALM      30.07R
W YELLOWSTONE  NOT AVBL

$$
WYZ002>013-054>058-071-098>099-160200-
NORTHERN WYOMING

CITY           SKY/WX    TMP DP  RH WIND       PRES   REMARKS
JACKSON        CLEAR     -6  -8  92 CALM      30.11R
CODY           FAIR       4  -3  73 NE5       30.03  WCI  -5
GREYBULL       FAIR      -7 -13  75 NW8       30.07R WCI -23
WORLAND        FAIR      -3  -7  82 SE5       30.03S WCI -13
SHERIDAN       FAIR      12   2  64 SE7       30.01R WCI   1
BUFFALO        FAIR      28   2  32 NW7       29.99R WCI  21
GILLETTE       FAIR      16  12  84 CALM      29.99R
HULETT         FAIR      28  14  54 S5        30.01R WCI  23
NEWCASTLE      FAIR      21  14  73 CALM      30.02R

$$
WYZ014>020-022>026-101>103-160200-
CENTRAL WYOMING

CITY           SKY/WX    TMP DP  RH WIND       PRES   REMARKS
BIG PINEY      FAIR      -9 -14  78 E6        30.04S WCI -22
PINEDALE       FAIR      -8 -13  77 CALM      30.05S
DUBOIS         NOT AVBL
LANDER         FAIR       8   4  83 CALM      30.00F
RIVERTON       FAIR       1  -4  79 W3        30.03S
CASPER         FAIR      22  17  81 W10       29.99S WCI  11
DOUGLAS        FAIR      25  18  74 CALM      29.99S

$$
WYZ021-027>030-104>119-160200-
SOUTHERN WYOMING

CITY           SKY/WX    TMP DP  RH WIND       PRES   REMARKS
EVANSTON       FAIR       8   2  76 CALM      30.03S
ROCK SPRINGS   FAIR       4   1  88 W10       30.03R WCI -11
RAWLINS        FOG       17  13  84 CALM      30.00R VSB 1/2
LARAMIE        CLOUDY    22  19  89 CALM      29.95R
CHEYENNE       CLOUDY    34  21  59 N6        29.95S WCI  29
TORRINGTON     MOCLDY    33  22  63 NW3       29.98S

$$




USA.gov is the U.S. government's official web portal to all federal, state and local government web resources and services.